FENGYUN 1C DEB

Satellite information

Favourite Embed

Satellite Type and Status

DEBRISIN ORBIT

Key statistics

Satellite FENGYUN 1C DEB at a glance.

Uptime

9553

Days in orbit

Revolutions

≈ 14.3

Per day

Orbit

SSO

Sun Synchronous Orbit

Inclination

99.2

Latest

Satellite identification and parameters

Extended collection of information and parameters for FENGYUN 1C DEB.

Object identification

Identified? True

Debris? True

Object name: FENGYUN 1C DEB

International designator: 1999-025AYM

Object number (NORAD): 30899

Object ID (CCSDS): 30899

Country: PEOPLES REPUBLIC OF CHINA (PRC)

Current information (Y/N): Y

RCS size: SMALL

Orbital parameters

Period: 100.6 minutes

Inclination: 99.1883 deg

SMA: 7165.153 km

Apoapsis: 812.082 km

Periapsis: 761.953 km

RAAN: 71.9412 deg

Eccentricy: 0.0034981

Argument of periapsis: 38.9155 deg

Mean anomaly: 19.566 deg

Mean motion: 14.31411766 rev/day

Mean motion (dot): 0.00003855 rev/day2

B* drag term: 0.0014613 1/REarth

Two-line elements (TLE)

Creation date: July 2, 2025, 10:36 p.m.

Reference frame: TEME

Reference center: EARTH

Epoch: July 2, 2025, 9:49 p.m. UTC

TLE line 0: 0 FENGYUN 1C DEB

TLE line 1: 1 30899U 99025AYM 25183.90959784 .00003855 00000-0 14613-2 0 9992

TLE line 2: 2 30899 99.1883 71.9412 0034981 38.9155 19.5660 14.31411766945592

Live tracking on map

Real-time ground track for satellite FENGYUN 1C DEB.

In-orbit conjunctions

A list of the most updated potential collisions computed for object FENGYUN 1C DEB.

Target Orbit TCA Probability of collision Miss distance Type
IRIDIUM 28 LEO 2025-04-20 01:01:10 0.0002838781 910.0 (m) PAYLOAD
FENGYUN 1C DEB SSO 2024-11-15 00:32:42 0.001704213 12.0 (m) DEBRIS
CZ-4 DEB SSO 2024-11-10 06:37:40 0.0007560136 319.0 (m) DEBRIS
ARGOS SSO 2024-07-30 22:12:38 0.0001023286 772.0 (m) PAYLOAD

Associated space launch

Chinese polar orbiting meteorological satellite

FENGYUN 1C DEB was lifted into orbit during the mission ‘Long March 4B | Feng Yun 1C’, on board a Long March 4B space rocket.

The launch took place on May 10, 1999, 1:33 a.m. from Launch Complex 7.

For more information about the launch, click the button.

Launch to space Long March 4B | Feng Yun 1C
Long March 4B | Feng Yun 1C

Agency: N/A

Status: Launch Successful

Launch date: May 10, 1999, 1:33 a.m. UTC

Rocket: Long March 4B

Launch pad: Launch Complex 7

Location: Taiyuan Satellite Launch Center, People's Republic of China

...

Latest news about this satellite

There are no fresh news available about this satellite. Check back as we update our databases every day.


Newsletter sign-up

Weekly statistics, charts and insights to help you stay on top of the space industry.